Stations météo

réclame
Mon MeteoGroup
Norrkoping, Suède (2574): Température de l'air & dewpoint: 15.10.2017 15:00:00 - 21.10.2017 15:00:00 (CEST)Norrkoping, Suède (2574): Vitesse du vent & gusts: 15.10.2017 15:00:00 - 21.10.2017 15:00:00 (CEST)Norrkoping, Suède (2574): Direction du vent: 15.10.2017 15:00:00 - 21.10.2017 15:00:00 (CEST)Norrkoping, Suède (2574): reduced air pressure: 15.10.2017 15:00:00 - 21.10.2017 15:00:00 (CEST)Norrkoping, Suède (2574): visibility: 15.10.2017 15:00:00 - 21.10.2017 15:00:00 (CEST)Norrkoping, Suède (2574): Quantités de précipitations: 15.10.2017 15:00:00 - 21.10.2017 15:00:00 (CEST)
Date & Time tt [°C] td [°C] ff [km/h] ff [knt] fx [km/h] fx [knt] dd ppp [hPa] vv [km] rr [mm]
21.10.2017 15:00:00 9,5 3,0 10 6 28 15 E 1020,7 50 0,0
21.10.2017 14:00:00 9,4 2,0 15 8 37 20 E 1020,8 50 0,0
21.10.2017 13:00:00 9,6 2,9 12 6 35 19 E 1020,7 50 0,0
21.10.2017 12:00:00 9,5 4,1 11 6 37 20 E 1020,8 50 0,0
21.10.2017 11:00:00 9,4 4,6 9 5 26 14 E 1020,6 50 0,0
21.10.2017 10:00:00 7,8 5,4 6 3 21 12 ENE 1020,4 48 0,0
21.10.2017 09:00:00 7,6 5,1 5 3 21 11 NE 1020,3 50 0,0
21.10.2017 08:00:00 7,1 5,1 6 3 23 12 NE 1020,0 50 0,0
21.10.2017 07:00:00 6,8 4,8 7 4 21 11 NE 1019,7 50 0,0
21.10.2017 06:00:00 6,8 4,5 6 3 19 11 NE 1019,7 50 0,0
21.10.2017 05:00:00 7,3 4,4 7 4 22 12 NE 1019,9 50 0,0
21.10.2017 04:00:00 7,7 4,8 7 4 18 10 NE 1020,0 50 0,0
21.10.2017 03:00:00 8,5 5,2 6 4 17 9 NE 1020,3 50 0,0
21.10.2017 02:00:00 9,0 5,0 8 4 18 10 E 1020,2 50 0,0
21.10.2017 01:00:00 9,0 5,9 8 4 18 10 E 1020,3 50 0,0
21.10.2017 00:00:00 9,0 6,3 7 4 20 11 ENE 1020,2 50 0,0
20.10.2017 23:00:00 8,9 5,8 6 4 18 10 E 1020,2 50 0,0
20.10.2017 22:00:00 8,8 5,4 7 4 19 10 E 1020,3 50 0,0
20.10.2017 21:00:00 8,7 5,3 6 3 18 10 E 1020,5 50 0,0
20.10.2017 20:00:00 8,8 5,5 8 4 19 11 E 1020,5 50 0,0
20.10.2017 19:00:00 8,8 5,7 6 3 16 8 E 1020,5 50 0,0
20.10.2017 18:00:00 9,1 5,5 6 4 17 9 E 1020,2 50 0,0
20.10.2017 17:00:00 9,5 5,7 9 5 21 12 E 1020,0 50 0,0
20.10.2017 16:00:00 9,9 5,9 10 5 23 12 E 1020,0 50 0,0
20.10.2017 15:00:00 10,0 5,6 10 5 27 14 E 1020,2 50 0,0
20.10.2017 14:00:00 10,1 6,4 9 5 18 10 ESE 1020,3 50 0,0
20.10.2017 13:00:00 9,9 7,0 6 3 16 9 E 1020,4 48 0,0
20.10.2017 12:00:00 8,4 6,4 6 3 16 9 ESE 1020,7 50 0,0
20.10.2017 11:00:00 7,7 6,2 6 3 14 7 SE 1020,9 50 0,0
20.10.2017 10:00:00 6,3 5,4 3 1 9 5 E 1021,2 50 0,0
20.10.2017 09:00:00 5,9 5,5 5 3 9 5 E 1020,6 50 0,0
20.10.2017 08:00:00 4,9 4,6 3 2 6 3 E 1020,6 33 0,0
20.10.2017 07:00:00 4,1 4,0 3 2 6 4 E 1020,4 30 0,0
20.10.2017 06:00:00 3,1 3,0 0 0 5 3 N 1020,8 18 0,0
20.10.2017 05:00:00 3,0 2,9 0 0 6 3 N 1021,1 22 0,0
20.10.2017 04:00:00 1,7 1,4 2 1 5 3 E 1021,2 24 0,0
20.10.2017 03:00:00 1,5 1,2 2 1 6 4 E 1021,3 18 0,0
20.10.2017 02:00:00 2,2 1,9 4 2 6 3 E 1021,6 34 0,0
20.10.2017 01:00:00 1,7 1,4 2 1 4 2 E 1021,7 17 0,0
20.10.2017 00:00:00 2,2 1,9 0 0 3 1 N 1021,7 38 0,0
19.10.2017 23:00:00 2,3 1,9 0 0 4 2 N 1021,9 38 0,0
19.10.2017 22:00:00 2,6 2,2 3 1 5 3 E 1021,7 38 0,0
19.10.2017 21:00:00 2,5 1,9 3 2 5 3 E 1021,5 31 0,0
19.10.2017 20:00:00 2,9 2,2 0 0 4 2 N 1021,6 37 0,0
19.10.2017 19:00:00 3,7 2,5 0 0 4 2 N 1021,5 49 0,0
19.10.2017 18:00:00 5,4 2,9 0 0 3 2 N 1021,4 50 0,0
19.10.2017 17:00:00 9,0 2,3 0 0 4 2 N 1021,3 50 0,0
19.10.2017 16:00:00 10,8 2,4 3 1 7 4 NW 1021,1 48 0,0
19.10.2017 15:00:00 10,8 2,9 3 1 6 3 W 1021,2 42 0,0
19.10.2017 14:00:00 10,4 3,2 3 2 9 5 NNW 1021,4 39 0,0
19.10.2017 13:00:00 10,2 3,2 2 1 6 4 WNW 1021,5 41 0,0
19.10.2017 12:00:00 8,6 3,6 0 0 5 3 N 1021,4 32 0,0
19.10.2017 11:00:00 6,9 3,7 2 1 6 3 NW 1021,5 30 0,0
19.10.2017 10:00:00 4,7 3,7 2 1 4 2 WSW 1021,2 23 0,0
19.10.2017 09:00:00 1,8 1,7 3 1 4 2 WSW 1020,9 12 0,0
19.10.2017 08:00:00 0,1 -0,2 0 0 5 3 N 1020,3 11 0,0
19.10.2017 07:00:00 0,3 0,2 0 0 4 2 N 1019,8 20 0,0
19.10.2017 06:00:00 0,9 0,6 0 0 6 3 N 1019,5 15 0,0
19.10.2017 05:00:00 1,8 1,5 3 2 6 3 SW 1019,4 31 0,0
19.10.2017 04:00:00 2,1 1,8 3 2 5 3 WSW 1019,2 41 0,0
19.10.2017 03:00:00 2,3 2,0 3 2 6 4 WSW 1019,0 43 0,0
19.10.2017 02:00:00 2,2 1,8 3 1 5 3 WSW 1018,9 34 0,0
19.10.2017 01:00:00 3,3 2,7 4 2 6 4 WSW 1018,6 50 0,0
19.10.2017 00:00:00 3,7 2,8 2 1 6 4 SW 1018,4 50 0,0
18.10.2017 23:00:00 5,1 3,6 3 2 13 7 W 1018,0 50 0,0
18.10.2017 22:00:00 5,8 4,3 5 3 11 6 W 1017,7 50 0,0
18.10.2017 21:00:00 5,1 4,1 5 3 9 5 W 1017,2 50 0,0
18.10.2017 20:00:00 5,1 3,9 2 1 9 5 WNW 1016,7 50 0,0
18.10.2017 19:00:00 6,2 4,0 2 1 12 7 SW 1016,2 50 0,0
18.10.2017 18:00:00 8,2 4,4 5 3 15 8 W 1015,4 50 0,0
18.10.2017 17:00:00 9,8 4,2 6 3 17 9 WSW 1014,9 50 0,0
18.10.2017 16:00:00 10,5 3,8 9 5 18 10 WNW 1014,5 49 0,0
18.10.2017 15:00:00 10,4 4,1 8 4 17 9 W 1014,3 48 0,0
18.10.2017 14:00:00 10,0 4,8 5 3 18 10 W 1014,2 47 0,0
18.10.2017 13:00:00 9,1 5,3 7 4 17 9 W 1013,9 45 0,0
18.10.2017 12:00:00 8,7 5,3 7 4 16 9 WNW 1013,4 47 0,0
18.10.2017 11:00:00 6,9 4,4 6 3 20 11 NW 1012,8 50 0,0
18.10.2017 10:00:00 7,1 5,1 6 4 21 11 NNW 1011,8 50 0,0
18.10.2017 09:00:00 7,2 5,3 6 3 20 11 NNW 1010,6 50 0,0
18.10.2017 08:00:00 7,3 5,8 10 6 40 22 N 1008,9 50 0,0
18.10.2017 07:00:00 9,9 8,8 9 5 27 15 N 1007,2 50 0,2
18.10.2017 06:00:00 10,7 10,1 7 4 24 13 W 1005,9 31 0,1
18.10.2017 05:00:00 10,8 10,0 12 7 35 19 WSW 1005,2 4,7 0,2
18.10.2017 04:00:00 11,0 9,8 15 8 29 16 WSW 1004,5 11 0,1
18.10.2017 03:00:00 10,9 10,0 16 8 39 21 SW 1004,5 12 0,2
18.10.2017 02:00:00 10,9 9,8 15 8 41 22 WSW 1004,7 4,2 0,2
18.10.2017 01:00:00 12,7 8,4 17 9 34 18 WSW 1004,4 36 0,0
18.10.2017 00:00:00 12,8 7,9 16 8 37 20 SW 1004,5 25 0,0
17.10.2017 23:00:00 13,0 7,9 15 8 33 18 SW 1004,7 22 0,0
17.10.2017 22:00:00 13,0 8,3 16 9 36 20 SW 1005,0 20 0,0
17.10.2017 21:00:00 12,8 8,3 13 7 34 19 SW 1005,5 18 0,0
17.10.2017 20:00:00 12,6 8,3 16 9 34 19 SW 1005,9 20 0,0
17.10.2017 19:00:00 12,8 8,1 14 7 36 20 WSW 1006,3 24 0,0
17.10.2017 18:00:00 13,5 7,9 17 9 42 23 WSW 1006,7 32 0,0
17.10.2017 17:00:00 14,0 7,5 18 10 41 22 WSW 1007,0 25 0,0
17.10.2017 16:00:00 14,4 7,7 20 11 43 23 WSW 1007,2 23 0,0
17.10.2017 15:00:00 15,0 6,8 22 12 58 31 WSW 1007,4 23 0,0
17.10.2017 14:00:00 15,1 7,4 13 7 28 15 WSW 1007,7 17 0,0
17.10.2017 13:00:00 16,5 10,6 20 11 45 25 WSW 1007,7 15 0,0
17.10.2017 12:00:00 15,9 12,3 18 10 36 19 SW 1007,8 9 0,0
17.10.2017 11:00:00 13,7 12,3 11 6 25 13 SSW 1008,6 6 0,0
17.10.2017 10:00:00 12,4 11,5 11 6 21 11 S 1009,5 8 0,0
17.10.2017 09:00:00 11,2 10,3 6 4 21 11 S 1010,6 15 0,0
17.10.2017 08:00:00 10,4 9,0 10 5 19 11 SE 1010,8 26 0,0
17.10.2017 07:00:00 9,7 8,9 7 4 18 10 SE 1012,3 17 0,1
17.10.2017 06:00:00 9,6 9,0 3 2 8 4 ESE 1014,6 14 0,1
17.10.2017 05:00:00 9,7 8,9 4 2 8 5 SSW 1015,4 16 0,0
17.10.2017 04:00:00 10,1 8,9 3 2 9 5 S 1015,9 16 0,0
17.10.2017 03:00:00 10,1 8,7 5 3 10 6 WSW 1016,9 18 0,0
17.10.2017 02:00:00 10,1 8,7 3 2 14 8 W 1016,6 19 0,0
17.10.2017 01:00:00 10,5 8,6 6 3 13 7 SW 1015,9 22 0,0
17.10.2017 00:00:00 10,6 8,7 7 4 12 6 SW 1016,0 23 0,0
16.10.2017 23:00:00 10,4 8,3 5 3 16 8 WSW 1016,5 20 0,0
16.10.2017 22:00:00 10,7 8,3 8 5 13 7 SW 1016,3 23 0,0
16.10.2017 21:00:00 11,3 8,3 6 4 14 8 WSW 1016,3 21 0,0
16.10.2017 20:00:00 11,7 8,2 5 3 10 5 SW 1015,8 22 0,0
16.10.2017 19:00:00 12,3 8,2 4 2 10 6 SW 1015,1 25 0,0
16.10.2017 18:00:00 13,1 8,6 5 3 15 8 W 1014,8 24 0,0
16.10.2017 17:00:00 14,9 8,8 5 3 23 12 W 1013,5 27 0,0
16.10.2017 16:00:00 15,9 8,9 11 6 28 15 WNW 1013,2 29 0,0
16.10.2017 15:00:00 16,4 9,8 8 5 25 14 W 1012,8 26 0,0
16.10.2017 14:00:00 15,8 9,7 11 6 37 20 W 1012,6 27 0,0
16.10.2017 13:00:00 15,5 10,5 10 6 35 19 W 1012,4 29 0,0
16.10.2017 12:00:00 15,4 11,0 11 6 36 20 W 1011,5 29 0,0
16.10.2017 11:00:00 15,4 11,0 15 8 39 21 W 1011,1 28 0,0
16.10.2017 10:00:00 15,1 11,1 13 7 34 18 W 1010,6 35 0,0
16.10.2017 09:00:00 15,0 11,4 16 9 46 25 WSW 1010,1 38 0,0
16.10.2017 08:00:00 15,0 11,6 17 9 42 23 WSW 1009,8 29 0,0
16.10.2017 07:00:00 15,2 12,0 18 10 38 21 WSW 1009,4 15 0,0
16.10.2017 06:00:00 15,4 12,3 18 10 39 21 WSW 1009,6 12 0,0
16.10.2017 05:00:00 15,0 11,8 9 5 18 10 SW 1009,9 17 0,0
16.10.2017 04:00:00 14,2 11,4 8 4 18 10 SW 1010,7 21 0,0
16.10.2017 03:00:00 13,4 10,8 9 5 27 14 SW 1011,2 24 0,0
16.10.2017 02:00:00 13,7 11,0 13 7 25 13 SW 1012,1 26 0,0
16.10.2017 01:00:00 13,3 11,0 8 5 23 12 SSW 1013,0 42 0,0
16.10.2017 00:00:00 13,2 10,9 11 6 31 17 SW 1013,5 50 0,0
15.10.2017 23:00:00 13,1 11,0 11 6 20 11 SW 1014,0 43 0,0
15.10.2017 22:00:00 13,3 10,5 9 5 27 14 SSW 1014,8 39 0,0
15.10.2017 21:00:00 13,2 9,6 10 5 22 12 SW 1015,8 31 0,0
15.10.2017 20:00:00 12,6 8,5 11 6 20 11 S 1015,9 25 0,0
15.10.2017 19:00:00 12,1 8,0 8 5 16 9 S 1016,8 23 0,0
15.10.2017 18:00:00 12,5 8,4 5 3 12 6 S 1017,0 18 0,0
15.10.2017 17:00:00 12,6 8,7 6 3 16 9 S 1017,5 16 0,0
15.10.2017 16:00:00 12,9 8,6 11 6 22 12 SW 1018,5 19 0,0
15.10.2017 15:00:00 13,4 8,2 8 4 18 10 WSW 1018,8 21 0,0

tt = Température de l'air
td = dewpoint
ff = Vitesse du vent
fx = gusts
dd = Direction du vent
ppp = reduced air pressure
vv = visibility
rr = Quantités de précipitations

stations d'obs. à proximité